Location: Buchdorf
(48.7842°N, 10.8275°E)
Time: 09:43:20
(UTC+00:00)

Cosmos 1833 Rocket - Pass Details

Date: 09 April 2020
Orbit: 834 x 838 km, 71.0° (Epoch: 06 June)

Event Time Altitude Azimuth Distance (km) Brightness Sun altitude
Exits shadow 22:20:02 28° 272° (W) 1,544 4.1 -31.8°
Maximum altitude 22:21:58 35° 310° (NW) 1,333 4.0 -31.9°
Drops below altitude 10° 22:27:07 10° 16° (NNE) 2,461 5.8 -32.1°
Sets 22:29:47 0° 25° (NNE) 3,398 6.5 -32.2°
